Lima, OH

5:53 AM EDT on September 23, 2017 (GMT -0400)
Lima Allen County

Weather History for KAOH - April, 2013

Change the Weather History Date:

Monday, April 8, 2013

  Actual Average (KFDY) Record (KFDY)
Temperature  
Mean Temperature 58 °F -  
Max Temperature 72 °F 54 °F 81 °F (2001)
Min Temperature 45 °F 34 °F 13 °F (1972)
Degree Days  
Heating Degree Days 7    
Growing Degree Days 8 (Base 50)    
Moisture  
Dew Point 47 °F    
Average Humidity 62    
Maximum Humidity 74    
Minimum Humidity 49    
Precipitation  
Precipitation 0.00 in - - ()
Sea Level Pressure  
Sea Level Pressure 29.90 in    
Wind  
Wind Speed 11 mph (South)    
Max Wind Speed 23 mph    
Max Gust Speed 40 mph    
Visibility 10 miles    
Events Rain , Thunderstorm    
Averages and records for this station are not official NWS values.
T = Trace of Precipitation, MM = Missing Value Source: NWS Daily Summary

Daily Weather History Graph

Daily Weather History Graph

Search for Another Location

Airport or City:

Trip Planner

Search our weather history database for the weather conditions in past years. The results will help you decide how hot, cold, wet, or windy it might be!

Date:

Astronomy

Apr. 08, 2013 Rise Set
Actual Time 7:07 AM EDT 8:08 PM EDT
Civil Twilight 6:40 AM EDT 8:36 PM EDT
Nautical Twilight 6:06 AM EDT 9:09 PM EDT
Astronomical Twilight 5:32 AM EDT 9:44 PM EDT
Moon 5:58 AM EDT (4/8) 6:41 PM EDT (4/8)
Length of Visible Light 13h 56m
Length of Day
13h 00m
Waning Crescent, 3% of the Moon is Illuminated
Apr 8
Waning Crescent
Apr 10
New
Apr 18
First Quarter
Apr 25
Full
May 2
Last Quarter

Hourly Weather History & Observations

Time (EDT) Temp. Windchill Dew Point Humidity Pressure Visibility Wind Dir Wind Speed Gust Speed Precip Events Conditions
12:53 AM 46.9 °F - 36.0 °F 66% 29.99 in 10.0 mi ENE 4.6 mph - N/A   Partly Cloudy
1:53 AM 46.0 °F 42.5 °F 36.0 °F 68% 29.99 in 10.0 mi East 6.9 mph - N/A   Mostly Cloudy
2:53 AM 45.0 °F 42.6 °F 36.0 °F 71% 29.97 in 10.0 mi ENE 4.6 mph - N/A   Clear
3:53 AM 45.0 °F 41.8 °F 36.0 °F 71% 29.96 in 10.0 mi East 5.8 mph - N/A   Clear
4:53 AM 45.0 °F 40.6 °F 37.0 °F 74% 29.93 in 10.0 mi ESE 8.1 mph - N/A   Clear
5:53 AM 46.0 °F 42.5 °F 37.0 °F 71% 29.93 in 10.0 mi East 6.9 mph - N/A   Clear
6:53 AM 48.0 °F - 39.0 °F 71% 29.93 in 10.0 mi ESE 5.8 mph - N/A   Scattered Clouds
7:53 AM 48.9 °F - 41.0 °F 74% 29.93 in 9.0 mi SE 8.1 mph - N/A   Overcast
8:53 AM 53.1 °F - 45.0 °F 74% 29.93 in 10.0 mi SSE 11.5 mph - N/A   Overcast
9:53 AM 60.1 °F - 48.0 °F 64% 29.91 in 10.0 mi South 11.5 mph - N/A   Mostly Cloudy
10:53 AM 66.9 °F - 48.0 °F 51% 29.87 in 10.0 mi South 17.3 mph 23.0 mph N/A   Mostly Cloudy
11:53 AM 66.0 °F - 46.9 °F 50% 29.86 in 10.0 mi South 19.6 mph 27.6 mph N/A   Mostly Cloudy
12:53 PM 66.0 °F - 48.0 °F 52% 29.85 in 10.0 mi South 15.0 mph 27.6 mph 0.00 in Rain Light Rain
1:53 PM 70.0 °F - 50.0 °F 49% 29.82 in 10.0 mi SSW 18.4 mph 40.3 mph 0.00 in   Scattered Clouds
2:53 PM 70.0 °F - 51.1 °F 51% 29.81 in 10.0 mi SSW 23.0 mph 35.7 mph N/A   Mostly Cloudy
3:53 PM 69.1 °F - 52.0 °F 54% 29.82 in 10.0 mi SW 18.4 mph 28.8 mph N/A   Overcast
4:53 PM 71.1 °F - 53.1 °F 53% 29.82 in 10.0 mi SSW 18.4 mph 28.8 mph N/A   Mostly Cloudy
5:53 PM 70.0 °F - 53.1 °F 55% 29.83 in 10.0 mi SSW 18.4 mph 29.9 mph N/A   Overcast
6:53 PM 70.0 °F - 53.1 °F 55% 29.84 in 10.0 mi SW 17.3 mph 28.8 mph N/A   Partly Cloudy
7:53 PM 69.1 °F - 53.1 °F 57% 29.86 in 10.0 mi SW 13.8 mph 23.0 mph N/A   Partly Cloudy
8:53 PM 68.0 °F - 53.1 °F 59% 29.88 in 10.0 mi SW 12.7 mph - N/A   Scattered Clouds
9:02 PM 68.0 °F - 53.6 °F 60% 29.89 in 10.0 mi SW 15.0 mph - N/A Thunderstorm Mostly Cloudy
9:21 PM 68.0 °F - 53.6 °F 60% 29.90 in 10.0 mi SW 15.0 mph 20.7 mph N/A   Scattered Clouds
9:49 PM 66.2 °F - 53.6 °F 64% 29.93 in 10.0 mi WSW 15.0 mph - 0.00 in Rain , Thunderstorm Light Rain
9:53 PM 66.9 °F - 53.1 °F 61% 29.92 in 10.0 mi WSW 16.1 mph - 0.00 in Thunderstorm Mostly Cloudy
10:04 PM 66.2 °F - 51.8 °F 60% 29.93 in 10.0 mi SW 15.0 mph - N/A   Mostly Cloudy
10:53 PM 66.0 °F - 53.1 °F 63% 29.95 in 10.0 mi WSW 18.4 mph 26.5 mph N/A   Partly Cloudy
11:53 PM 62.1 °F - 53.1 °F 72% 29.98 in 10.0 mi NNW 8.1 mph - N/A   Mostly Cloudy